Regional Weather Roundup
Issued by NWS

Home | Current Version | Previous Version | Graphics & Text | Print | Product List | Glossary On
Versions: 1 2 3 4 5 6 7 8 9 10 11 12 13 14 15 16 17 18 19 20 21 22 23 24 25 26 27 28 29 30 31 32 33 34 35 36 37 38 39 40 41 42 43 44 45 46 47 48 49 50
000
ASUS43 KLOT 291512
RWRIL

ILLINOIS REGIONAL WEATHER ROUNDUP
NATIONAL WEATHER SERVICE CHICAGO/ROMEOVILLE IL
1000 AM CDT FRI MAY 29 2015

NOTE: "FAIR" INDICATES FEW OR NO CLOUDS BELOW 12,000 FEET WITH NO
SIGNIFICANT WEATHER AND/OR OBSTRUCTIONS TO VISIBILITY.

* THESE STATIONS ARE NOT UNDER NWS QUALITY CONTROL. THEY ALSO MAY NOT
  REPORT WEATHER SUCH AS PRECIPITATION OR FOG.

ILZ001-002-007-009-015-016-024-291600-
NORTHWEST ILLINOIS

CITY           SKY/WX    TMP DP  RH WIND       PRES   REMARKS
MOLINE         CLOUDY    70  67  90 S6        29.97F
STERLING*      CLOUDY    73  66  78 SW3       30.00F
SAVANNA*       CLOUDY    75  65  69 S12       29.98F
$$

ILZ003-004-008-010-011-017-018-291600-
NORTH CENTRAL ILLINOIS

CITY           SKY/WX    TMP DP  RH WIND       PRES   REMARKS
ROCKFORD       LGT RAIN  75  65  70 S13       30.02S
FREEPORT*      PTSUNNY   73  66  77 S13       30.01F
ROCHELLE*      CLOUDY    71  67  88 S10       30.02S
DE KALB*       CLOUDY    73  64  72 S16       30.03F
PERU*          CLOUDY    76  65  70 S13       30.02F
$$

ILZ005-006-012>014-019>023-291600-
NORTHEAST ILLINOIS

CITY           SKY/WX    TMP DP  RH WIND       PRES   REMARKS
CHICAGO-OHARE  PTSUNNY   77  64  64 S15       30.03F
CHICAGO-MIDWAY PTSUNNY   80  65  59 SW15G22   30.03F HX  82
AURORA         PTSUNNY   77  65  66 S12       30.03F
LANSING*       MOSUNNY   78  64  62 SW13      30.05F HX  80
JOLIET*        MOSUNNY   78  68  73 S9        30.04F
WAUKEGAN       MOSUNNY   78  66  66 S14       30.02F HX  80
DUPAGE AIRPORT MOSUNNY   78  66  66 S13G23    30.02F HX  80
KANKAKEE*      PTSUNNY   80  68  68 S15       30.06S HX  82
WHEELING       MOSUNNY   78  64  61 S16       30.04F HX  80
MORRIS*        PTSUNNY   79  65  62 S12G18    30.02F HX  80
ROMEOVILLE*    MOSUNNY   77  65  67 S13       30.04F
NORTHERLY ISL    N/A     78  63  59 S10         N/A  HX  80
$$

LMZ740>746-291600-
SOUTHERN LAKE MICHIGAN

STATION/POSITION SKY/WX   TEMP    WIND        PRES    VSBY  WAVE
                          AIR SEA DIR/SP/G                  HT/PER
                          (F)     (DEG/KT/KT) (MB)    (MI)  (FT/S)
SOUTHERN BUOY              47 38  170/ 12/ 12 1018.1R         1
HARRISON CRIB              70     160/ 10/ 13   N/A
BURNHAM HARBOR             78     210/  5/ 13   N/A
CALUMET HARBOR             76     180/  9/ 12   N/A
BURNS HARBOR               75     180/ 11/ 13 1018.6R
MICHIGAN CITY              73     170/  9/ 13   N/A
MICHIGAN CITY 6N           66 56  210/  4/  4   N/A           0
ST. JOSEPH                 63 57  210/  4/  6   N/A           1
$$

ILZ025>027-034>036-040-047-049-050-058-095>099-291600-
WEST-CENTRAL ILLINOIS

CITY           SKY/WX    TMP DP  RH WIND       PRES   REMARKS
QUINCY         PTSUNNY   72  66  81 S10       30.00S
GALESBURG*     CLOUDY    70  65  84 S10       29.99S
MACOMB*        CLOUDY    71  66  84 SW10      30.02S
JACKSONVILLE*  CLOUDY    78  69  73 SW10      30.02F
PITTSFIELD*    PTSUNNY   75  67  76 SW10      30.03S
$$

ILZ028>032-037-038-041>044-048-051>054-059>061-291600-
CENTRAL ILLINOIS

CITY           SKY/WX    TMP DP  RH WIND       PRES   REMARKS
PONTIAC        HVY RAIN  71  69  92 S12       30.06R
BLOOMINGTON    PTSUNNY   74  69  84 S16       30.06S
DECATUR        LGT RAIN  74  66  76 S10       30.07S
PEORIA         CLOUDY    77  66  68 S14       30.01F
LACON*         PTSUNNY   75  65  73 S10G17    30.00F
LINCOLN*       PTSUNNY   75  67  76 S10       30.02S
SPRINGFIELD    CLOUDY    76  66  71 SW12      30.04R
TAYLORVILLE    PTSUNNY   73  68  83 S12       30.06S
$$

ILZ033-039-045-046-055>057-062-063-291600-
EAST-CENTRAL ILLINOIS

CITY           SKY/WX    TMP DP  RH WIND       PRES   REMARKS
CHAMPAIGN      PTSUNNY   79  65  62 S15       30.07F HX  81
DANVILLE*      MOSUNNY   77  67  69 S12       30.06F
RANTOUL*       CLOUDY    80  67  64 S13G18    30.07F HX  82
PARIS*         MOSUNNY   81  66  60 S14G21    30.10S HX  83
$$

ILZ079-100>102-291600-
SOUTHWEST ILLINOIS

CITY           SKY/WX    TMP DP  RH WIND       PRES   REMARKS
ALTON          MOSUNNY   75  73  94 S9        30.05S
BELLEVILLE     MOSUNNY   77  72  83 S10       30.05S
CAHOKIA*       PTSUNNY   79  68  69 SW3       30.04S HX  81
SPARTA*        PTSUNNY   76  69  80 S8        30.08S
$$

ILZ064>066-069>071-074>076-080>082-084>086-088>090-092>094-291600-
SOUTH-CENTRAL ILLINOIS

CITY           SKY/WX    TMP DP  RH WIND       PRES   REMARKS
CARBONDALE     MOSUNNY   76  68  76 S9        30.09S
CAIRO*         SUNNY     76  70  79 S8        30.10F
EFFINGHAM*     PTSUNNY   77  65  66 S9        30.11R
MT. VERNON     MOSUNNY   77  66  69 S8        30.11S
CENTRALIA*     MOSUNNY   80  67  63 S10       30.09R HX  82
SALEM*         MOSUNNY   78  67  68 SE9       30.09S HX  80
METROPOLIS*    CLOUDY    74  73  94 SE3       30.11F
$$

ILZ067-068-072-073-078-083-087-091-291600-
SOUTHEAST ILLINOIS

CITY           SKY/WX    TMP DP  RH WIND       PRES   REMARKS
LAWRENCEVILLE  CLOUDY    77  67  71 S14       30.12S
FLORA*         MOSUNNY   77  65  66 SW13      30.10F
FAIRFIELD*     PTSUNNY   78  68  72 S10       30.10S HX  80
HARRISBURG*    PTSUNNY   76  68  77 S9        30.13R
ROBINSON*      PTSUNNY   79  66  65 S13       30.12S HX  81
CARMI*         CLOUDY    77  64  65 S10       30.12S
$$

ABBREVIATIONS USED IN REMARKS
   TC - TEMPERATURE IN CELSIUS
  WCI - WIND CHILL INDEX
   HX - HEAT INDEX
  VSB - VISIBILITY
$$



USA.gov is the U.S. government's official web portal to all federal, state and local government web resources and services.